Showing default

YUNYAO-1 19, 58759

Orbit data source: Space-Track

YUNYAO-1 19, 58759 is a payload satellite owned by Yunyao yuhang (CN) in LEO that was launched on Thu, 11 Jan 2024 UTC via a YINLI-1 launch vehicle from the Yellow Sea Launch Area, China (YSLA). Payload-class satellites include a variety of spacecraft equipped with specific instruments for various scientific and technological missions. These include communications satellites like Starlink; space stations such as the ISS; scientific satellites like the Hubble; Earth observation satellites from companies like Planet Labs, Umbra, and HawkEye 360; GPS; miniature CubeSats for education and research; and military/defense satellites.

Loading next visibility...
Identifier
58759, 2024-009B
Orbit
LEO
Country
Flag of CNCN / PRC
Related business
Manufacturer
Changguang WJ
Mission
Operational Commercial Meteo Radio Occ.
Bus & Motor
YY-1, Unknown motor
Mass
~500 kg wet, ~500 kg dry
Launch date (UTC)
2024-01-11 (2 years ago)
Launch vehicle
YINLI-1
Launch site
Yellow Sea Launch Area, China (YSLA)
Object type
Payload
Rocket body
Debris
Shape & HBR
Box + 1 Pan, 2.5 m
Radar Cross Section
5.339 m², Medium (>0.1 m² and < 1m²)

Expand to show TLE details & history
Last TLE update: 23 hours ago

TLE from 23 hours ago
0 YUNYAO-1 19
1 58759U 24009B   26172.48756862  .00005187  00000-0  26649-3 0  9994
2 58759  49.9833 146.4517 0005437 308.7359  51.3107 15.18005353135326
Epoch: 2026-06-21T11:42Z
TLE epoch observation values (Epoch: 2026-06-21T11:42:05.928Z)
Latitude
-0.00004°
Longitude
61.23984°
Altitude
510.08 km
Speed
7.612 km/s
True Right ascension
09h 45m 48s
True Declination
0° 00' 00"
Sunlit
Object was in daylight at epoch
Visualization orbit readout
Latitude
Unknown
Longitude
Unknown
Altitude
Unknown
Speed
Unknown
Apparent Right ascension
Unknown
Apparent Declination
Unknown
Sunlit
N/A
Visualization observer readout
Local Sidereal Time
21:40:31
Azimuth
Unknown
Elevation
Unknown
Doppler factor
Unknown
Orbital elements
Apogee altitude
516.389 km
Perigee altitude
508.896 km
Semi-major axis
6,890.779 km
Eccentricity
0.00054
Inclination
49.9833°
RAAN
146.4517°
Arg. of periapsis
308.7359°
True anomaly
51.35935°
Mean anomaly
51.3107°
Eccentric anomaly
51.33502°
Mean motion
3.79438 °/min
Orbital period
94.88 mins
BSTAR
0.00026649
Loading maneuver chart data...
Computing Atmospheric mass density...
Loading historical data...
Loading historical data...
Loading historical data...
Loading historical data...
Loading historical data...
Loading historical data...
Loading historical data...
Other satellites on launch #9 in the year 2024 (2024-01-11 UTC)

Documentation

Showing up to 5 results
|